Vertical_Velocity
-3 3 5 6 3 1 4 -2 -4 1 1 -7 3 3 0 3 14 12 3 -4 42 14 -2 -0 1 0 3 1 -1 -0 1 -0 -1 0 2 0 -2 -1 -0 0 -2 -1 -1
3 -4 6 34 -1 3 5 2 7 3 5 2 -1 5 2 1 10 7 5 2 1 -2 -1 -3 1 -0 4 1 -0 -1 2 0 -2 1 -0 1 -1 -2 -1 -0 -1 -1 -1
-5 3 1 1 14 6 -1 3 6 6 -5 10 2 7 -1 -1 3 7 6 1 4 -3 2 1 -3 2 2 0 -0 -1 2 1 -0 -1 0 1 1 -1 0 -1 -1 -0 0
3 -3 1 -2 -4 27 -24 67 0 23 4 6 13 2 1 -8 3 4 3 -0 -4 -4 5 2 0 1 -2 2 0 -1 2 0 2 0 -1 1 1 0 0 -2 -0 0 0
1 4 -2 -1 3 -1 2 -11 18 3 2 11 7 1 -2 -3 4 -1 -3 3 -1 -1 12 2 -1 0 -1 0 -0 -0 2 -0 2 2 0 1 -0 1 1 -1 -0 0 0
-1 3 4 -4 1 3 4 15 -2 -6 -0 26 13 7 -4 3 9 7 2 4 3 -6 -1 2 -1 -7 2 -1 2 -1 1 2 1 2 0 1 1 1 0 -0 -0 -1 -1
3 -1 2 3 -4 1 1 1 -3 -4 2 -1 22 7 6 7 -1 14 4 -4 -2 -9 -0 5 5 -6 -2 0 1 1 -2 2 2 2 0 -1 0 1 1 -0 -0 -1 -1
1 4 -2 -1 0 -1 -2 0 11 -21 11 10 -1 14 12 1 -1 36 22 -4 8 3 -1 -1 4 -4 -1 0 2 2 1 1 3 2 0 -0 0 2 1 1 -0 -1 -2
2 2 1 -0 -6 -2 -2 -1 -6 -3 7 -5 6 12 6 -6 8 -1 42 6 -1 3 -4 2 -1 -2 -3 3 -0 -2 1 -2 2 2 -1 -0 -1 2 1 2 2 1 0
-1 -0 1 1 1 -9 0 -2 -2 -0 7 3 3 2 -2 4 15 2 50 -0 -3 -3 11 0 6 -2 1 -0 0 -0 1 2 1 3 -0 1 -2 0 2 1 2 2 1
0 -3 -0 -2 2 1 -5 -3 -5 -4 -0 3 20 4 -1 -4 -2 6 6 7 -7 -6 -5 11 8 3 2 -1 -0 -1 1 2 -0 -0 -1 3 -1 0 1 1 2 3 1
-1 -3 -4 -2 -2 3 0 -5 -4 -5 -1 -0 -6 1 -1 8 3 18 1 6 7 14 3 -6 6 4 12 -4 2 2 -1 2 2 -2 -0 1 1 -1 0 0 1 2 1
3 -1 -4 -3 -1 -3 3 -1 -4 -5 -3 0 5 -1 -2 6 5 -2 -11 13 41 -10 -14 -3 -9 1 12 1 3 -1 0 3 2 -1 -2 2 1 1 1 1 -0 1 1
-2 2 -2 -4 -5 -3 -0 2 -1 -4 -6 -0 0 -1 -3 2 2 3 24 2 80 -4 -3 5 -1 3 4 0 5 -1 -1 1 0 2 -0 1 -0 -1 -0 0 0 2 1
-1 1 1 -1 -3 -5 -3 0 -2 -3 -6 1 3 -2 -0 0 6 7 6 8 6 7 -3 -7 -6 2 -3 -5 3 -1 -1 1 1 0 -0 1 1 -0 -0 -0 -0 0 0
-1 -2 2 1 -4 -4 -3 -1 -2 -1 -3 -3 1 0 2 1 1 1 1 -8 17 5 2 2 6 3 5 5 3 -1 -1 2 2 2 1 1 0 -1 -0 -0 -0 1 -1
-1 -3 0 4 -4 -3 -3 -0 -4 -2 -1 -2 -1 2 3 0 -1 -0 -4 -1 11 37 4 4 5 -6 -7 -4 -5 -1 -3 -5 -1 -1 1 2 0 -0 1 0 -0 0 -0
-1 0 1 3 -1 -2 -2 -1 -3 -2 -2 -1 1 1 2 -2 -1 -2 -1 1 22 31 0 3 -0 2 1 1 3 3 3 1 -2 -3 -2 2 0 -1 -1 -1 -0 -0 -0
-1 -3 -2 2 1 -2 -2 -0 -2 -0 0 -0 0 1 1 3 -1 -2 -4 -1 10 6 4 -0 -4 -6 1 -2 -2 -0 2 1 -1 -1 -4 -4 -2 -2 -3 -1 -0 0 1
-0 -2 -0 1 1 1 -2 -2 -0 -2 0 -0 2 1 1 2 -3 -4 2 4 -1 2 5 -1 12 -4 -2 -1 1 1 -0 -0 -1 -2 -2 0 -2 -2 -3 -2 1 2 1
0 -1 -2 -0 1 1 -0 1 -1 -0 -1 -0 -1 0 -1 0 -2 -1 -3 2 4 -2 7 23 0 -3 -3 0 -1 -0 -2 5 2 2 -1 -3 4 2 2 2 1 2 5
2 -1 1 -1 0 1 -0 2 -3 -2 1 -1 -1 -2 -0 4 -2 3 -7 2 3 3 3 3 8 -3 9 -0 -1 1 0 -11 -11 2 -4 -3 -6 -1 -1 2 8 3 2
2 1 1 -1 -0 -1 0 0 1 -4 -2 -0 -0 -3 -2 -1 -0 0 -5 -0 2 -1 3 5 22 4 -5 2 4 -2 -2 1 -1 6 -3 -0 -0 8 3 6 2 3 2
2 3 1 0 1 -0 -2 0 2 0 -3 -2 2 0 -1 -0 -3 3 -2 -1 -0 5 3 -0 -2 16 17 -0 -7 -3 -4 23 20 -13 -5 -4 -1 5 -0 6 2 -0 -0
-2 -0 2 1 1 0 -2 -1 3 3 4 -3 -6 -0 1 -1 2 -1 6 -1 2 -6 3 -0 3 0 10 10 5 -7 -2 -5 0 -3 -4 -4 2 5 -2 -2 2 1 -0
-1 -0 -1 3 1 0 -2 -2 0 -1 1 2 4 -1 -2 -2 -0 -1 -1 -4 -1 -9 -5 2 8 2 -1 5 4 5 -9 -0 -4 -5 5 -3 0 1 -7 -0 1 1 2
Height
5755 5760 5766 5768 5771 5776 5778 5781 5785 5790 5794 5800 5805 5809 5809 5812 5813 5814 5813 5815 5824 5832 5833 5839 5844 5846 5849 5852 5854 5856 5858 5862 5864 5867 5870 5874 5877 5880 5883 5887 5889 5890 5891
5740 5744 5744 5754 5758 5764 5767 5769 5773 5778 5783 5786 5794 5800 5802 5806 5808 5813 5809 5814 5821 5827 5830 5834 5840 5843 5846 5849 5851 5853 5856 5859 5863 5866 5870 5873 5876 5880 5883 5886 5888 5890 5891
5721 5726 5733 5740 5746 5752 5756 5756 5754 5762 5769 5774 5781 5788 5792 5797 5802 5806 5811 5814 5818 5821 5826 5830 5836 5840 5842 5846 5848 5851 5854 5857 5861 5865 5869 5873 5876 5879 5882 5885 5887 5889 5890
5700 5706 5714 5723 5731 5737 5740 5727 5746 5751 5758 5765 5771 5777 5782 5786 5795 5798 5803 5810 5811 5816 5820 5826 5831 5837 5839 5842 5844 5848 5851 5855 5860 5864 5868 5872 5875 5878 5881 5883 5885 5887 5890
5681 5687 5695 5704 5712 5718 5725 5727 5726 5741 5749 5756 5762 5767 5770 5775 5781 5789 5794 5801 5806 5810 5815 5821 5826 5831 5836 5837 5841 5845 5848 5853 5857 5862 5866 5870 5873 5876 5879 5881 5884 5886 5889
5663 5668 5675 5685 5694 5701 5708 5719 5722 5730 5735 5744 5751 5758 5761 5767 5773 5777 5785 5792 5800 5804 5810 5815 5820 5826 5831 5833 5838 5841 5846 5850 5855 5860 5864 5868 5871 5875 5878 5880 5883 5885 5887
5647 5650 5656 5665 5675 5683 5691 5701 5710 5717 5723 5730 5740 5747 5752 5757 5763 5767 5773 5784 5792 5798 5803 5808 5814 5820 5825 5828 5833 5838 5842 5847 5851 5857 5862 5866 5870 5873 5876 5879 5881 5883 5885
5635 5638 5640 5647 5656 5665 5674 5686 5697 5702 5709 5718 5724 5734 5740 5747 5754 5755 5763 5773 5785 5789 5794 5800 5807 5814 5819 5822 5829 5834 5839 5843 5848 5853 5858 5863 5867 5871 5874 5877 5880 5882 5884
5624 5627 5630 5632 5638 5648 5656 5666 5678 5686 5695 5704 5711 5720 5729 5738 5746 5751 5755 5764 5774 5781 5785 5791 5800 5807 5813 5817 5823 5828 5834 5838 5844 5849 5854 5859 5863 5868 5871 5874 5877 5879 5882
5612 5616 5619 5623 5625 5631 5640 5648 5661 5667 5680 5690 5699 5707 5716 5728 5731 5741 5742 5755 5763 5770 5776 5783 5790 5798 5806 5811 5818 5823 5829 5834 5839 5844 5849 5854 5859 5864 5867 5870 5873 5876 5879
5601 5604 5608 5612 5616 5618 5623 5632 5642 5652 5662 5675 5682 5692 5703 5712 5723 5730 5736 5747 5755 5762 5768 5774 5781 5790 5798 5806 5813 5817 5823 5829 5834 5839 5845 5849 5854 5859 5863 5866 5870 5873 5875
5590 5593 5596 5601 5606 5609 5611 5616 5625 5636 5646 5658 5666 5677 5688 5698 5709 5718 5727 5736 5746 5755 5761 5766 5773 5782 5791 5799 5806 5811 5815 5823 5828 5834 5839 5844 5849 5853 5858 5862 5865 5868 5871
5579 5582 5585 5589 5594 5598 5602 5604 5610 5620 5632 5642 5653 5663 5673 5683 5696 5705 5716 5724 5726 5742 5748 5753 5762 5774 5783 5792 5799 5803 5808 5816 5822 5827 5833 5839 5844 5848 5852 5856 5860 5863 5867
5570 5572 5575 5578 5583 5587 5591 5594 5597 5605 5617 5628 5639 5649 5660 5670 5680 5693 5704 5715 5712 5729 5737 5744 5757 5767 5776 5785 5794 5798 5802 5808 5814 5820 5827 5832 5837 5842 5846 5850 5855 5858 5861
5560 5562 5565 5568 5571 5576 5579 5583 5586 5591 5601 5612 5623 5635 5646 5656 5667 5676 5687 5700 5709 5716 5726 5737 5745 5758 5768 5777 5785 5791 5796 5802 5807 5813 5818 5825 5830 5835 5840 5844 5848 5852 5856
5550 5552 5555 5558 5561 5565 5569 5571 5574 5579 5586 5597 5608 5620 5632 5642 5652 5663 5675 5688 5696 5707 5718 5732 5741 5751 5760 5768 5776 5781 5789 5795 5800 5805 5810 5816 5822 5827 5832 5837 5842 5846 5849
5542 5543 5545 5548 5550 5555 5558 5560 5563 5567 5573 5582 5594 5606 5616 5627 5639 5650 5662 5676 5685 5691 5705 5717 5729 5737 5744 5754 5763 5771 5780 5785 5792 5798 5803 5808 5813 5819 5824 5829 5834 5838 5843
5535 5534 5535 5538 5541 5545 5548 5550 5551 5555 5562 5570 5579 5591 5601 5614 5625 5637 5649 5662 5672 5681 5684 5703 5716 5725 5734 5744 5753 5763 5771 5777 5783 5789 5795 5801 5805 5810 5816 5820 5826 5831 5835
5528 5527 5528 5529 5533 5536 5538 5540 5542 5545 5551 5558 5567 5577 5588 5600 5612 5623 5634 5648 5661 5670 5678 5690 5702 5712 5722 5731 5740 5751 5759 5765 5772 5778 5784 5790 5796 5801 5807 5813 5818 5823 5826
5523 5522 5521 5521 5524 5527 5530 5531 5534 5537 5542 5548 5555 5564 5575 5586 5599 5608 5622 5636 5647 5659 5669 5680 5692 5699 5709 5719 5728 5738 5747 5754 5762 5768 5773 5780 5788 5794 5800 5804 5810 5814 5819
5518 5516 5514 5515 5517 5520 5522 5524 5526 5529 5534 5540 5546 5553 5562 5573 5587 5597 5608 5620 5633 5646 5658 5668 5677 5688 5698 5705 5715 5725 5734 5747 5753 5759 5764 5770 5779 5786 5792 5797 5803 5808 5813
5515 5513 5511 5510 5510 5513 5515 5517 5520 5521 5526 5532 5538 5545 5552 5561 5573 5586 5596 5608 5620 5632 5644 5656 5665 5675 5687 5697 5703 5712 5722 5729 5738 5748 5753 5760 5767 5776 5784 5789 5795 5800 5804
5513 5511 5508 5507 5506 5507 5509 5511 5513 5515 5518 5523 5530 5536 5543 5551 5561 5573 5583 5594 5605 5616 5631 5642 5653 5662 5673 5684 5691 5699 5708 5719 5728 5739 5744 5750 5755 5764 5772 5779 5784 5789 5793
5510 5507 5505 5504 5502 5502 5503 5504 5506 5507 5510 5516 5522 5528 5535 5542 5550 5560 5570 5580 5590 5603 5615 5627 5635 5648 5659 5669 5676 5687 5695 5694 5702 5720 5728 5733 5741 5748 5757 5766 5772 5777 5783
5505 5503 5501 5499 5498 5497 5498 5498 5497 5498 5501 5507 5513 5519 5526 5532 5540 5550 5558 5568 5576 5588 5601 5613 5623 5634 5644 5652 5663 5672 5682 5688 5697 5707 5712 5719 5729 5738 5744 5752 5760 5766 5771
5502 5499 5496 5494 5493 5493 5493 5491 5490 5491 5493 5498 5503 5508 5514 5521 5528 5537 5544 5553 5562 5573 5585 5598 5607 5617 5627 5635 5646 5656 5666 5673 5680 5692 5703 5705 5715 5724 5730 5738 5747 5753 5758